Wind_Speed
10 9 8 8 8 8 8 9 10 12 14 15 16 17 19 21 22 22 22 22 22 23 24 24 24 23 23 23 23 23 23 23 24 24 24 24 24 25
11 10 9 9 8 8 8 8 9 10 13 15 16 17 18 20 21 21 22 23 22 23 24 24 24 24 25 25 24 24 24 24 24 25 25 25 25 25
11 10 10 9 9 8 8 8 9 10 11 14 15 16 18 20 20 21 22 22 23 23 24 24 24 25 25 25 25 25 25 25 25 25 26 26 26 26
12 11 10 9 9 9 8 8 9 10 11 12 14 16 18 19 19 21 22 22 24 24 24 24 24 25 25 25 26 26 26 26 26 26 26 26 27 26
13 12 11 10 9 9 8 8 9 10 11 12 14 15 17 19 19 20 21 22 23 24 25 25 25 26 26 26 27 26 26 26 27 27 26 27 27 27
13 13 12 11 11 10 9 9 9 10 11 12 14 15 16 18 19 20 20 21 22 24 25 26 26 26 26 27 27 28 27 27 27 27 27 27 28 28
14 13 12 12 12 11 11 10 10 10 11 12 14 15 16 17 18 19 20 21 22 23 24 24 25 26 27 27 27 28 28 28 28 29 29 29 29 30
15 14 13 13 13 12 12 11 11 11 11 12 14 15 15 17 17 18 19 20 21 22 23 24 25 26 27 27 27 27 27 28 28 29 29 29 30 30
17 16 15 15 14 14 14 13 12 12 12 13 13 14 15 16 17 18 19 19 20 21 22 23 24 25 26 26 27 27 26 26 27 27 28 29 30 30
19 18 17 17 16 16 15 14 14 14 14 14 14 15 15 16 16 17 19 20 21 22 22 23 23 24 24 25 26 26 27 27 28 28 29 30 31 31
21 21 20 19 19 18 17 16 16 16 16 15 16 16 17 17 17 18 19 20 21 22 22 22 23 24 25 25 25 25 26 26 27 28 28 29 30 30
24 23 22 21 21 21 20 19 19 18 18 18 18 18 18 19 19 19 20 21 21 22 23 24 24 24 24 25 25 25 26 27 27 28 28 29 29 30
26 25 24 23 23 23 22 22 21 21 22 21 20 20 20 20 21 21 22 22 22 23 24 24 24 24 25 25 26 26 26 27 27 28 28 29 30 30
28 28 27 26 26 26 26 25 25 24 24 24 24 23 23 22 23 23 23 23 23 23 24 25 25 25 25 26 26 26 27 27 28 28 28 29 29 30
32 31 30 29 28 28 29 28 28 27 27 27 26 26 26 25 25 25 25 25 25 25 25 25 25 26 26 26 26 26 27 27 27 28 28 28 28 29
35 34 33 32 31 31 31 31 31 30 29 29 29 28 28 28 28 27 27 27 27 27 27 26 26 26 27 27 26 27 27 28 28 29 29 29 29 30
38 37 37 36 35 34 34 33 33 33 32 31 31 31 31 31 30 30 29 29 29 29 28 28 28 26 27 28 28 27 28 28 29 29 29 30 30 30
40 39 39 38 38 37 37 36 36 35 35 34 34 34 33 33 33 33 32 31 31 30 30 30 30 29 29 29 29 28 28 29 29 30 30 31 31 32
43 42 41 40 40 39 39 38 38 37 37 36 36 36 35 35 35 35 34 33 33 33 32 32 32 31 31 31 31 30 30 29 30 31 31 32 32 33
45 44 43 41 41 41 41 40 40 39 38 37 37 37 37 37 37 36 35 34 34 34 34 33 33 32 32 32 32 32 32 31 31 31 32 32 32 32
47 47 45 44 42 42 41 41 41 41 39 38 38 37 38 38 38 38 37 36 35 35 34 34 33 33 33 33 32 32 33 33 32 32 32 32 32 32
47 47 46 45 44 43 42 42 42 42 41 39 38 38 38 38 39 39 38 38 37 36 36 35 35 34 34 33 33 33 33 33 33 33 33 33 33 33
48 47 46 46 45 44 43 43 43 43 42 41 39 38 39 39 39 39 38 38 38 38 37 37 36 36 35 35 34 33 33 33 33 33 34 34 34 34
Wind_Direction
332 327 321 314 305 290 281 268 255 246 239 235 233 232 230 229 228 230 231 228 228 230 232 232 233 234 236 236 237 239 241 244 246 247 250 251 252 252
332 326 321 313 303 291 281 273 260 250 243 239 237 236 232 229 227 229 230 230 232 232 233 234 235 235 237 240 242 243 244 247 248 249 252 253 255 255
332 327 322 316 306 297 286 274 264 255 249 243 239 236 234 232 232 232 231 232 234 235 236 237 238 238 239 242 243 244 247 248 250 252 253 254 257 257
330 326 321 317 309 303 293 279 270 260 252 247 241 238 235 235 236 235 235 236 236 237 238 240 241 242 242 243 245 247 249 251 252 253 254 255 256 258
326 324 322 315 308 304 298 287 276 265 255 249 246 243 239 236 238 238 239 241 241 240 240 241 243 246 245 246 247 249 251 252 253 254 256 257 258 259
323 321 318 313 308 303 297 289 281 273 261 254 251 247 244 239 239 240 241 244 244 243 243 243 244 247 249 249 250 250 252 252 253 254 255 257 259 260
319 318 315 309 303 299 295 288 282 276 267 259 253 249 245 241 240 241 242 244 245 245 245 245 245 248 250 250 251 253 254 254 255 256 256 258 260 260
312 312 310 306 302 297 294 286 280 273 269 265 258 252 249 245 243 244 243 244 245 246 246 248 249 249 251 251 252 255 255 255 257 258 258 258 261 262
306 305 303 300 298 294 292 284 277 272 269 266 260 254 251 248 245 245 246 247 248 249 250 250 251 252 252 252 254 256 256 257 259 260 261 261 263 264
301 300 297 294 292 289 288 283 278 274 269 266 262 258 253 250 248 249 249 248 250 250 251 253 253 253 253 255 256 255 255 257 259 260 262 262 264 266
296 295 292 289 286 284 283 279 276 274 270 266 263 261 257 254 253 252 252 252 253 252 252 254 256 256 255 255 256 255 256 257 259 261 262 264 266 266
290 289 287 285 282 280 278 277 274 272 270 268 265 264 262 259 256 256 256 256 256 256 254 256 258 258 256 254 255 257 258 259 261 263 264 265 266 268
287 286 285 282 280 278 276 274 272 271 270 269 267 265 263 261 259 257 258 258 259 260 258 258 259 259 258 258 258 259 261 261 262 265 267 266 266 267
283 282 282 281 278 275 273 272 271 270 269 269 267 265 263 261 259 258 258 259 260 261 261 261 261 260 261 261 261 261 262 263 265 266 267 268 267 267
279 278 277 277 276 274 272 270 269 268 267 266 266 265 264 261 260 259 259 260 261 262 263 263 264 263 263 263 263 264 263 263 264 265 266 268 270 269
276 275 274 273 272 272 270 268 266 266 267 266 265 265 264 263 262 262 261 262 263 263 264 266 266 267 266 266 266 266 264 264 265 266 267 268 271 272
274 273 272 271 271 270 269 267 265 264 264 264 264 264 263 263 263 263 262 261 263 264 265 267 267 268 268 267 266 266 266 265 265 267 268 270 271 273
273 272 271 270 269 268 267 266 264 262 262 262 263 263 262 262 262 262 263 262 262 263 263 264 265 265 266 267 266 266 267 267 267 268 270 271 272 273
271 270 269 269 268 266 265 264 262 260 260 261 261 262 261 261 261 261 261 262 262 262 263 263 264 264 264 266 266 266 267 268 269 269 271 272 273 274
270 269 268 267 266 266 264 263 261 258 259 259 259 261 261 260 260 260 260 260 261 261 261 262 264 264 265 265 265 266 267 269 270 270 271 272 273 274
269 268 267 265 264 264 263 262 260 258 258 259 258 259 259 260 259 259 259 259 260 260 261 261 262 263 264 265 265 266 268 269 270 271 272 273 275 276
269 267 265 264 262 261 261 260 258 256 257 257 256 257 258 258 259 259 259 259 259 259 260 260 261 261 262 265 266 267 268 269 270 271 271 273 275 276
268 266 264 263 261 260 260 259 257 255 256 256 255 255 256 257 257 257 258 258 258 258 259 260 260 261 262 263 265 267 268 268 269 270 272 273 275 276
Height
5800 5799 5798 5797 5796 5797 5797 5798 5799 5800 5802 5804 5807 5809 5812 5815 5818 5821 5825 5828 5831 5835 5838 5841 5844 5847 5850 5853 5855 5858 5860 5862 5865 5867 5869 5870 5872 5873
5799 5798 5797 5796 5795 5795 5795 5795 5796 5798 5799 5801 5803 5806 5808 5811 5814 5817 5821 5824 5827 5830 5833 5836 5839 5842 5845 5847 5850 5852 5855 5857 5859 5861 5863 5864 5866 5867
5798 5797 5795 5795 5794 5793 5793 5793 5794 5795 5796 5798 5800 5802 5804 5807 5810 5813 5816 5819 5822 5825 5828 5831 5834 5837 5839 5842 5844 5847 5849 5851 5853 5855 5856 5858 5859 5861
5797 5796 5794 5793 5792 5792 5791 5791 5791 5792 5793 5795 5797 5799 5801 5803 5806 5809 5811 5814 5817 5820 5823 5826 5828 5831 5833 5836 5838 5840 5843 5844 5846 5848 5850 5851 5853 5854
5796 5795 5793 5792 5791 5790 5789 5789 5789 5789 5790 5792 5793 5795 5797 5799 5801 5804 5806 5809 5812 5814 5817 5820 5823 5825 5827 5830 5832 5834 5836 5838 5840 5841 5842 5844 5845 5847
5795 5793 5791 5790 5789 5788 5787 5787 5786 5787 5787 5788 5790 5791 5793 5795 5797 5799 5802 5804 5806 5809 5811 5814 5816 5819 5821 5823 5825 5827 5829 5831 5832 5834 5835 5837 5838 5839
5793 5791 5789 5788 5787 5786 5785 5784 5784 5784 5784 5785 5786 5788 5789 5790 5792 5795 5797 5799 5801 5803 5805 5808 5810 5812 5814 5816 5818 5820 5821 5823 5824 5826 5828 5829 5830 5831
5790 5788 5787 5785 5784 5783 5782 5781 5781 5781 5782 5782 5783 5784 5785 5786 5788 5790 5791 5793 5796 5798 5800 5802 5803 5805 5807 5809 5810 5812 5814 5815 5817 5818 5819 5821 5822 5823
5786 5785 5783 5782 5781 5780 5779 5778 5778 5778 5778 5779 5779 5780 5781 5782 5783 5785 5786 5788 5790 5791 5793 5795 5797 5798 5800 5802 5803 5805 5806 5807 5809 5810 5811 5812 5813 5814
5781 5780 5779 5778 5777 5776 5775 5774 5774 5774 5774 5774 5775 5776 5776 5777 5778 5780 5781 5783 5784 5786 5787 5789 5790 5792 5793 5794 5796 5797 5799 5800 5801 5802 5803 5804 5804 5805
5776 5775 5774 5773 5772 5771 5770 5770 5770 5770 5770 5770 5770 5771 5771 5772 5773 5775 5776 5777 5778 5779 5781 5782 5783 5784 5786 5787 5788 5789 5791 5792 5793 5794 5794 5795 5796 5796
5769 5768 5767 5766 5766 5765 5765 5765 5765 5765 5765 5765 5765 5766 5766 5767 5768 5769 5770 5771 5772 5773 5774 5775 5776 5777 5779 5780 5781 5782 5783 5783 5784 5785 5786 5786 5787 5787
5761 5760 5759 5759 5758 5758 5758 5758 5758 5758 5758 5759 5759 5760 5760 5761 5762 5762 5763 5764 5765 5766 5767 5768 5769 5770 5771 5772 5773 5774 5774 5775 5776 5777 5777 5777 5778 5778
5752 5752 5751 5750 5750 5749 5749 5750 5750 5750 5751 5751 5752 5753 5754 5754 5755 5756 5756 5757 5758 5759 5759 5760 5761 5762 5763 5764 5765 5765 5766 5767 5768 5768 5768 5768 5769 5769
5742 5742 5741 5741 5741 5740 5740 5741 5741 5741 5742 5743 5744 5745 5746 5746 5747 5748 5748 5749 5750 5751 5751 5752 5753 5754 5754 5755 5756 5757 5758 5758 5759 5759 5759 5760 5760 5760
5730 5730 5730 5730 5730 5730 5730 5731 5731 5732 5733 5734 5735 5736 5736 5737 5738 5739 5740 5741 5742 5743 5743 5744 5744 5745 5746 5746 5747 5748 5749 5749 5750 5750 5750 5751 5751 5751
5717 5717 5718 5718 5718 5719 5719 5720 5720 5721 5722 5723 5724 5726 5727 5727 5729 5729 5730 5732 5733 5734 5734 5735 5735 5736 5737 5737 5738 5739 5739 5740 5740 5741 5741 5741 5741 5741
5702 5703 5704 5704 5705 5706 5706 5707 5708 5709 5711 5712 5713 5714 5716 5717 5718 5719 5720 5721 5723 5724 5725 5725 5726 5727 5727 5728 5729 5729 5730 5730 5731 5731 5731 5731 5731 5731
5687 5688 5689 5690 5691 5691 5692 5693 5695 5696 5698 5699 5700 5702 5704 5705 5706 5707 5709 5710 5711 5713 5714 5715 5715 5716 5717 5718 5719 5719 5720 5720 5720 5721 5721 5721 5721 5721
5671 5672 5673 5674 5675 5676 5678 5679 5680 5682 5683 5685 5687 5689 5691 5692 5694 5695 5697 5698 5699 5701 5702 5703 5704 5705 5706 5708 5708 5709 5709 5710 5710 5710 5710 5710 5710 5710
5655 5656 5657 5658 5659 5661 5662 5663 5665 5667 5669 5671 5673 5675 5677 5679 5680 5682 5684 5686 5687 5688 5690 5691 5693 5694 5695 5696 5697 5698 5698 5698 5699 5699 5699 5699 5699 5699
5637 5639 5640 5641 5643 5644 5646 5648 5650 5652 5654 5656 5659 5661 5663 5665 5667 5669 5671 5673 5674 5676 5678 5679 5680 5682 5683 5685 5686 5686 5687 5687 5687 5688 5688 5688 5688 5688
5620 5621 5622 5624 5626 5628 5629 5631 5634 5637 5639 5641 5644 5646 5649 5651 5653 5655 5657 5659 5661 5663 5665 5666 5668 5670 5671 5673 5674 5675 5675 5676 5676 5676 5677 5676 5676 5676